RH
55 56 58 59 61 62 64 65 64 61 59 59 54 50 48 38 25 23 35 26 27 26 24 19 16 21 20 19 15 13 18 20 15 13 12 12 13 10 10 20 56 65 69 64 76
51 55 56 56 58 59 62 62 62 65 63 61 60 56 50 44 36 36 25 26 28 28 25 26 28 27 28 23 21 18 20 16 13 13 14 13 12 12 11 13 41 58 68 81 91
53 54 56 55 55 57 60 62 62 62 64 65 67 61 53 45 39 28 28 31 33 30 27 24 26 24 25 25 22 20 20 14 15 16 20 16 16 11 11 12 21 32 75 84 89
62 56 57 58 57 57 59 61 61 62 60 66 72 70 54 49 19 26 30 32 34 33 27 26 29 29 30 30 27 34 24 24 24 24 23 23 16 16 13 14 12 31 74 80 84
84 69 61 60 62 62 62 63 61 62 65 71 80 80 62 71 55 29 35 34 35 35 32 29 39 42 44 44 34 30 31 33 30 29 26 23 22 19 17 14 14 24 76 80 78
75 82 72 70 67 67 68 66 61 62 67 80 89 87 79 81 32 37 41 40 42 40 39 37 42 42 45 47 40 35 36 36 30 29 25 25 22 16 17 16 15 23 82 81 77
64 68 74 70 68 65 65 64 60 60 73 92 89 83 84 74 30 33 36 34 35 42 47 39 40 44 47 51 41 37 40 37 30 24 24 21 24 20 17 17 18 16 58 79 76
76 64 66 67 67 64 65 65 62 68 89 92 82 84 94 48 48 43 35 37 38 34 44 42 43 44 48 44 42 41 40 40 22 25 23 21 34 22 20 20 19 17 15 64 74
84 77 61 61 69 69 70 69 70 87 92 82 88 81 86 50 52 43 46 56 54 48 45 42 42 50 47 59 66 53 46 44 38 28 26 24 32 23 23 24 23 21 20 22 66
88 85 71 56 64 76 79 78 94 91 97 93 87 70 60 42 37 44 49 52 54 50 49 48 56 62 67 71 58 56 57 50 44 36 33 39 37 30 28 26 30 36 36 31 23
98 90 86 67 66 84 84 96 97 96 97 81 78 62 49 48 42 42 47 54 46 49 68 58 71 81 66 64 54 49 51 57 49 38 40 41 41 34 28 32 43 44 47 47 43
100 100 96 85 73 80 79 96 75 63 91 84 72 71 58 56 63 49 41 44 51 61 48 53 75 62 56 56 57 58 62 61 49 40 42 44 42 37 27 39 41 43 46 49 50
100 100 100 100 82 95 98 82 64 64 82 76 77 77 62 58 64 54 46 42 48 60 53 63 48 43 56 57 56 55 59 56 53 39 39 42 49 37 37 41 42 44 47 50 55
100 98 100 100 98 98 96 93 76 61 92 76 83 73 68 60 72 43 43 43 48 55 52 52 40 41 49 51 49 60 45 44 47 44 57 39 69 40 38 51 46 47 50 56 75
100 100 100 97 89 97 87 97 77 67 99 59 72 52 59 66 55 62 45 46 54 49 51 56 46 52 54 48 45 52 42 44 38 44 50 46 58 49 48 53 46 49 49 62 75
98 100 100 100 95 87 88 87 87 100 96 66 60 76 85 70 58 52 57 45 50 54 56 49 44 43 43 38 38 34 32 42 48 51 69 53 56 58 53 53 48 46 50 57 71
94 100 100 100 94 91 95 98 100 99 67 65 67 61 76 80 71 51 67 66 74 85 81 61 61 52 39 47 35 32 46 70 66 69 73 49 58 54 49 44 47 48 48 53 66
93 100 100 99 89 94 96 99 99 91 82 49 53 61 80 75 72 50 69 76 65 59 75 82 82 56 48 52 56 44 48 70 74 79 69 59 64 61 45 39 38 42 43 50 58
97 100 100 100 99 99 96 100 98 83 60 56 52 72 71 73 70 54 66 68 61 56 63 80 76 41 40 45 43 51 54 44 70 80 89 70 60 50 53 47 38 34 39 45 49
100 98 96 100 100 98 97 89 84 82 51 45 64 61 78 72 75 64 61 53 56 51 44 49 53 37 30 36 40 44 43 61 82 81 87 75 70 76 67 54 42 38 42 45 43
98 100 100 100 100 97 100 94 82 71 66 57 59 62 61 66 64 67 67 52 45 50 43 46 49 45 34 42 47 55 57 66 70 81 84 83 79 58 59 48 38 30 33 47 49
95 100 99 100 99 100 99 92 82 78 59 74 76 65 55 59 62 66 70 58 44 44 57 50 59 64 46 40 35 40 58 66 83 84 91 86 74 47 43 37 48 54 43 20 41
100 99 99 100 99 99 89 89 86 79 73 87 82 66 62 53 64 56 60 47 48 45 53 53 70 75 59 46 40 43 46 62 76 83 87 93 82 42 38 38 35 39 30 24 22
99 100 100 100 96 83 86 84 96 76 73 80 77 63 53 53 48 56 62 52 47 48 54 52 64 64 65 54 57 49 40 50 66 92 87 89 71 57 47 40 43 45 38 30 26
100 100 92 97 99 84 82 88 88 98 80 75 82 72 58 78 75 75 67 56 52 55 52 54 72 71 67 55 48 48 51 46 53 66 79 69 61 44 56 42 35 31 40 33 28
100 98 98 93 92 91 93 96 95 96 92 95 81 67 62 74 67 76 67 68 58 48 53 60 90 83 79 58 56 48 54 49 46 50 55 56 51 36 33 33 35 38 37 35 34
100 96 87 98 97 96 95 99 97 94 96 83 73 77 70 65 62 67 62 61 58 59 66 69 83 75 84 66 60 76 59 54 52 49 49 59 45 36 37 55 59 67 65 57 47
Wind_Speed
24 22 20 17 15 12 10 9 8 9 10 13 15 18 20 23 24 14 3 2 5 11 13 16 14 23 5 4 4 3 3 1 3 2 3 5 8 6 4 2 4 4 2 4 28
25 24 22 19 17 14 12 10 9 9 10 12 15 17 19 22 21 6 3 5 6 12 12 13 8 13 5 5 4 4 3 7 3 3 5 3 1 6 6 9 1 3 4 16 23
27 25 23 21 19 16 14 12 10 8 9 12 14 17 18 17 6 4 3 4 7 11 8 8 6 2 4 4 4 3 3 2 3 5 8 5 5 3 3 5 3 5 3 11 12
29 27 25 23 20 18 15 13 11 10 9 10 12 16 16 7 5 3 2 7 6 10 7 5 5 4 3 4 2 3 4 4 7 6 5 8 6 6 5 7 6 7 13 14 14
30 28 26 24 22 19 16 14 12 10 9 8 10 14 7 4 8 7 4 7 2 7 5 3 4 2 1 4 6 4 3 8 7 9 7 6 7 6 7 12 12 6 8 15 17
32 29 27 25 23 20 17 14 11 10 9 7 7 11 4 3 4 6 5 4 4 5 5 3 3 2 2 3 0 4 6 8 7 10 7 6 4 0 9 10 10 8 12 15 16
34 31 29 26 23 20 17 15 11 10 7 5 7 7 1 13 5 7 15 18 15 9 4 2 3 5 2 4 3 5 6 8 5 4 4 2 4 5 9 8 11 10 10 14 17
35 34 32 28 26 21 18 15 10 9 6 3 6 4 6 14 18 22 20 22 19 16 12 11 9 1 3 4 6 3 2 4 5 4 5 4 5 9 9 8 11 11 4 11 18
37 34 33 30 27 22 18 13 12 8 5 5 4 3 9 9 8 7 10 6 1 11 8 6 1 3 0 3 4 3 3 3 7 4 4 3 6 7 12 8 9 9 9 6 8
39 36 33 31 28 23 17 14 8 5 4 4 3 3 7 4 4 3 5 5 3 5 3 3 3 3 1 4 4 5 3 3 4 6 3 8 9 9 10 6 7 8 8 8 7
40 37 34 31 29 26 24 11 4 2 7 8 7 3 3 8 4 3 3 8 3 3 5 4 4 10 10 9 3 2 3 4 5 11 4 8 5 9 7 5 7 7 7 7 8
36 38 36 31 30 31 30 6 8 4 3 21 16 11 18 5 5 4 2 5 5 6 4 2 12 9 6 5 4 6 7 8 7 10 5 7 10 8 4 1 3 5 6 6 6
33 30 35 33 29 31 29 20 13 4 3 5 11 12 11 12 12 12 3 5 5 7 8 7 5 6 9 5 6 9 6 7 8 6 4 5 6 5 3 4 7 9 9 9 10
33 30 35 36 29 26 24 23 10 9 3 6 7 8 10 6 8 23 19 7 6 12 7 8 13 6 5 6 10 5 9 13 11 3 2 2 5 3 1 6 6 9 9 10 13
32 31 34 44 23 26 20 28 20 9 4 6 6 7 10 11 4 10 21 6 11 9 7 8 4 7 9 11 8 8 9 8 5 2 3 3 1 5 5 4 4 7 8 10 10
32 33 38 39 25 25 26 28 17 6 9 2 7 7 8 12 3 4 7 3 5 3 2 8 1 1 5 3 6 3 3 5 4 2 2 6 7 4 3 5 2 2 6 7 7
34 38 44 32 13 36 37 13 6 3 0 6 7 8 8 6 8 5 13 10 8 7 10 0 13 4 4 2 1 3 5 2 3 1 5 3 3 4 4 4 5 5 4 7 6
36 38 43 30 30 46 25 6 8 10 10 2 8 9 9 7 6 5 13 15 9 4 3 10 5 12 6 13 6 6 7 5 6 4 3 5 4 4 5 5 5 4 3 5 7
35 36 27 29 38 44 13 11 8 5 8 6 10 6 5 4 7 6 8 16 14 8 7 5 6 2 6 6 14 5 5 6 6 3 3 3 1 4 4 4 4 4 3 5 2
32 21 22 29 45 30 15 18 12 8 3 9 11 7 13 12 7 13 11 9 7 16 4 5 1 1 3 5 3 8 7 3 3 4 5 4 4 5 8 6 6 6 6 5 4
26 4 20 31 38 11 13 9 10 12 8 9 9 6 6 9 10 14 9 5 16 14 15 5 3 4 2 4 8 4 4 3 5 4 5 3 5 4 8 6 3 4 3 8 8
10 10 18 36 13 3 8 9 5 8 11 4 2 3 6 9 12 14 11 9 10 14 15 11 4 4 5 5 3 4 8 8 5 6 2 3 4 4 7 6 5 8 7 2 5
4 6 6 8 17 13 5 9 12 12 12 10 5 9 7 4 6 12 9 1 3 13 15 9 5 3 5 4 3 3 2 4 5 3 6 5 4 3 4 6 4 5 8 3 4
4 5 2 2 2 17 12 19 9 6 11 6 8 5 3 6 3 4 4 1 2 3 6 8 4 7 10 3 5 5 4 4 5 3 6 4 2 7 3 3 3 6 7 7 11
3 4 3 9 15 19 18 10 17 8 4 11 8 11 6 6 5 5 4 2 5 4 4 5 5 3 3 3 2 4 8 7 4 7 6 5 6 5 6 3 5 10 10 10 12
6 4 2 5 10 16 17 14 20 7 9 11 7 16 14 7 13 13 11 5 6 2 3 0 4 4 3 3 5 1 6 6 6 5 5 6 11 6 5 5 6 7 7 9 11
0 4 4 5 12 15 12 8 13 16 5 9 9 7 9 6 4 4 4 5 6 7 3 4 6 4 4 4 6 7 10 10 6 6 8 8 10 5 4 4 4 4 4 6 4
Wind_Direction
224 224 224 225 230 234 246 261 279 299 315 326 332 336 339 338 332 345 18 4 353 348 347 345 4 357 12 21 8 117 61 196 266 226 283 343 2 313 304 22 358 353 176 259 159
225 225 226 227 231 233 240 251 268 291 308 319 327 332 338 338 329 304 54 62 12 353 348 358 347 350 2 10 9 80 123 213 242 334 296 300 321 302 354 333 190 324 353 133 152
228 227 228 228 229 234 238 247 258 275 299 314 325 330 337 338 322 215 72 37 2 357 342 333 336 25 4 25 14 353 211 261 313 342 351 300 302 349 323 304 245 273 173 144 163
228 228 228 229 230 232 236 242 253 268 284 304 326 334 342 345 304 169 41 345 338 350 350 16 7 36 4 342 332 360 270 24 305 319 317 313 306 315 239 240 261 241 186 167 178
230 229 228 229 230 233 235 239 248 260 278 304 333 347 6 13 255 286 286 336 321 345 21 9 49 30 352 326 339 194 332 314 282 281 265 248 257 251 253 259 277 237 177 195 195
230 229 227 230 229 230 235 238 244 257 275 305 340 360 68 296 250 277 284 286 342 16 360 32 106 263 301 291 175 311 290 285 290 281 268 263 295 172 280 270 254 215 203 209 206
229 227 226 226 228 227 230 235 239 254 269 295 348 359 199 243 248 246 281 284 273 282 330 316 91 53 350 303 342 292 306 317 262 272 274 42 353 232 263 305 281 262 203 211 217
230 227 224 223 222 223 224 226 232 240 248 294 320 326 250 270 284 277 277 275 260 251 242 260 285 261 173 286 347 330 1 348 292 331 279 136 274 291 319 338 318 298 280 213 227
229 228 225 221 220 216 216 215 219 220 241 276 307 52 264 295 278 302 235 239 111 215 223 257 122 186 42 87 353 335 256 241 317 335 313 12 293 283 308 319 322 333 330 285 259
226 226 224 219 213 208 198 198 196 217 230 249 231 350 262 268 258 225 183 161 104 136 108 144 73 140 137 116 227 229 233 248 253 294 348 303 253 276 280 345 353 347 345 333 296
222 222 222 217 208 194 182 144 140 245 210 199 193 236 276 332 306 175 181 139 113 86 162 177 165 213 187 193 207 346 303 300 266 278 310 279 266 279 302 36 8 354 342 330 316
232 222 218 215 205 197 187 180 181 158 246 230 243 244 267 299 323 289 191 167 146 184 156 108 237 223 185 208 230 267 280 280 281 266 175 271 292 280 287 19 292 306 327 323 311
227 227 219 207 201 192 191 186 157 68 309 244 211 220 227 213 220 251 185 193 179 176 188 187 241 183 177 200 213 237 213 248 226 284 296 322 295 261 45 38 1 351 328 330 328
221 220 223 194 179 187 205 198 170 100 300 251 210 237 186 192 254 202 202 164 215 190 181 227 243 243 179 223 192 242 209 239 250 213 235 51 283 311 310 43 8 350 346 340 355
219 222 218 196 161 183 193 188 166 98 242 192 176 166 163 178 148 205 189 158 192 181 149 228 217 202 208 224 174 228 248 211 215 183 116 249 301 262 126 37 1 340 346 21 20
222 214 212 184 174 189 178 171 151 168 233 236 164 160 148 207 266 97 165 97 134 183 198 214 286 242 203 197 206 197 118 47 43 95 302 223 177 271 289 168 212 336 346 18 51
220 211 201 184 179 167 159 140 193 208 298 199 181 169 172 167 204 167 173 185 166 173 227 170 253 235 173 246 225 103 96 340 334 327 228 303 143 224 184 151 167 148 24 1 28
215 212 205 193 183 162 156 177 225 168 218 192 165 159 188 143 206 171 166 193 228 137 120 196 278 191 187 197 178 182 161 157 212 215 259 300 232 216 170 102 105 90 76 23 18
211 202 196 196 182 163 171 206 196 178 187 184 142 151 206 175 156 171 184 206 203 172 180 166 251 221 183 156 168 177 191 177 110 34 40 236 48 10 117 135 111 114 78 78 45
190 197 192 192 179 171 204 205 202 202 285 212 173 169 183 177 168 187 173 193 197 193 165 209 268 256 172 106 193 180 156 84 347 162 223 250 223 204 180 186 170 141 174 195 219
195 226 165 178 175 189 214 193 208 188 200 230 211 178 170 171 186 192 203 211 191 180 185 160 129 291 136 197 166 123 179 78 129 155 182 189 252 234 144 166 131 1 103 210 216
208 202 177 160 207 134 212 154 170 197 200 127 305 239 175 163 187 196 216 205 191 164 192 196 158 206 226 305 232 162 193 159 161 207 244 154 281 94 139 120 58 322 318 352 218
189 174 191 172 207 202 177 171 174 175 189 151 195 225 206 178 168 193 204 301 224 168 174 168 200 114 339 339 321 167 126 114 103 55 184 160 221 151 137 95 102 303 304 314 303
158 135 139 290 253 195 208 214 186 163 198 146 164 253 164 198 78 183 158 25 343 116 115 107 116 188 214 187 141 157 140 127 127 139 157 208 200 242 292 244 310 310 304 309 290
208 175 172 182 200 191 189 181 198 167 187 153 190 191 174 186 178 193 124 154 354 148 84 123 134 99 34 71 85 126 156 150 127 149 156 178 244 223 237 204 242 257 248 256 268
150 151 94 166 164 177 181 200 187 149 159 180 199 184 188 180 192 188 159 180 179 210 125 234 136 114 36 14 51 203 174 165 169 179 195 199 250 253 262 246 252 256 261 256 254
244 73 102 142 170 174 187 161 178 145 352 169 166 134 140 158 112 44 53 114 144 142 147 120 131 129 169 97 40 305 186 185 186 189 161 193 223 183 250 182 245 291 316 291 283